Flag for U.S.A. Weather past 2 weeks in Galveston, Texas, U.S.A.

Now
75 °F

Heavy rain. Fog.


Feels Like: 73 °F
Forecast: 78 / 82 °F
Wind: 7 mph from Northeast

Location: Scholes Field

Current Time: Sep 18, 2014 at 5:17:17 PM

Latest Report: Sep 18, 2014 at 4:03 PM


Visibility: 2 mi

Pressure: 29.87 "Hg

Humidity: 96%

Dew point: 74 °F

Location of GalvestonLocation

Historic Weather in Galveston — Graph

°F

Galveston temperature yesterday

Maximum temperature yesterday: 86 °F (at 10:52 AM)
Minimum temperature yesterday: 76 °F (at 2:02 PM)
Average temperature yesterday: 81 °F

Past Weeks' High & Low Weather Summary

 TemperatureHumidityPressure
High90 °F (Sep 4, 10:52 AM)100% (Sep 18, 2:01 PM)30.17 "Hg (Sep 18, 2:01 PM)
Low68 °F (Sep 14, 3:52 AM)65% (Sep 5, 10:52 AM)29.86 "Hg (Sep 10, 5:52 PM)
Average82 °F82%30.00 "Hg
* Reported Sep 3 4:52 PM — Sep 18 4:03 PM, Galveston, Weather by CustomWeather, © 2014

Note: Actual official high and low records may vary slightly from our data, if they occured in-between our weather recording intervals... More about our weather records

Advertising

Galveston weather history for previous 24 hours

 ConditionsComfort  
Time TempWeatherWind HumidityBarometerVisibility
4:03 PM
Sep 18
75 °FHeavy rain. Fog.7 mph96%29.87 "Hg2 mi
3:52 PM75 °FHeavy rain. Fog.No wind96%29.88 "Hg3 mi
2:52 PM76 °FHeavy rain. Fog.13 mph97%29.88 "Hg2 mi
2:01 PM75 °FHeavy rain. Fog.5 mph100%29.90 "Hg1 mi
12:52 PM78 °FLight rain. Mostly cloudy.8 mph93%29.89 "Hg10 mi
12:03 PM77 °FLight rain. Fog.6 mph90%29.92 "Hg4 mi
10:52 AM81 °FBroken clouds.3 mph91%29.91 "Hg10 mi
10:01 AM81 °FBroken clouds.7 mph88%29.90 "Hg10 mi
8:52 AM79 °FLight rain. Scattered clouds.No wind94%29.90 "Hg10 mi
7:52 AM79 °FLight rain. Passing clouds.7 mph90%29.89 "Hg10 mi
6:52 AM80 °FThundershowers. Passing clouds.12 mph90%29.88 "Hg10 mi
5:59 AM80 °FThundershowers. Partly cloudy.13 mph90%29.88 "Hg10 mi
4:52 AM81 °FPassing clouds.9 mph88%29.88 "Hg10 mi
3:52 AM81 °FPassing clouds.7 mph88%29.88 "Hg10 mi
2:52 AM80 °FPassing clouds.5 mph90%29.89 "Hg10 mi
1:52 AM80 °FClear.6 mph90%29.90 "Hg10 mi
12:52 AM80 °FClear.7 mph87%29.90 "Hg10 mi
11:52 PM
Sep 17
80 °FClear.7 mph87%29.91 "Hg10 mi
10:52 PM80 °FClear.7 mph90%29.91 "Hg10 mi
9:52 PM80 °FClear.9 mph87%29.93 "Hg10 mi
8:52 PM79 °FPassing clouds.10 mph90%29.91 "Hg10 mi
7:52 PM80 °FPartly sunny.10 mph90%29.91 "Hg10 mi
6:52 PM80 °FLight rain. Broken clouds.9 mph90%29.90 "Hg10 mi
5:52 PM80 °FLight rain. Mostly cloudy.7 mph87%29.91 "Hg10 mi
Weather by CustomWeather, © 2014

See weather overviewHow to use our weather pages